Weather in Kadnikovskiy

Russia / Vologda Oblast     60°19′12″N   40°15′53″E
temp.,
°C
wind,
m/s
gust,
m/s
humid.,
%
clouds,
%
prec.,
mm/h
press.,
hPa
HPBL,
m
11 april, sun
sun1100:00+3s61779100 0.0 1018753
03:00+2sw51284100 0.0 1019754
06:00+1wsw3108717 0.1 1021575
09:00+3wsw47785 0.1 1024739
12:00+6sw46655 0.0 10261065
15:00+6wsw47605 0.0 10281324
18:00+5sw38710 0.0 1029314
21:000sw26915 0.0 103285
12 april, mon
mon1200:00−2ssw119566 0.0 103427
03:00−3s11955 0.0 103615
06:00−1sse258925 0.0 103684
09:00+5sse3886100 0.0 1036291
12:00+7sse4108357 0.1 1035534
15:00+12s487731 0.1 1033873
18:00+10s39825 0.0 1033378
21:00+7sse3129114 0.0 1032315
13 april, tue
tue1300:00+6sse31392100 0.0 1031430
03:00+6sse41393100 0.1 1029483
06:00+6sse31096100 0.0 1028422
09:00+7s4994100 0.0 1026472
12:00+10s41086100 0.0 1025589
15:00+13s41078100 0.0 1023786
18:00+12s2682100 0.0 1023204
21:00+9s2993100 0.0 1022189
14 april, wed
wed1400:00+9ssw2794100 0.0 1022179
03:00+7ssw2395100 0.0 102156
06:00+8s2596100 0.3 1021131
09:00+11ssw397795 0.3 1020455
12:00+15ssw4106245 0.0 1018839
15:00+16sw51258100 0.0 10171512
18:00+13wnw3579100 0.0 1018275
21:00+6nnw3692100 1.8 1020357
15 april, thu
thu1500:00+4n3791100 2.5 1021502
03:00+3nne3793100 3.6 1022472
06:00+3ne2794100 0.3 1022386
09:00+5ne3580100 0.3 1022625
12:00+7ne3467100 0.0 10221116
15:00+7ene3566100 0.1 10221090
18:00+6ne3771100 0.1 1022585
21:00+4nne3877100 0.1 1024339